This is the latest recevied weather packets stored in our database for station/object AH6GR. If no packets are shown the sender has not sent any weather packets the latest 10 day(s).
| Time | Temp. | Humidity | Pressure | Rain* | Wind** | Luminosity | Snow |
|---|---|---|---|---|---|---|---|
| 1777522222 | 21.67° C | 79% | 1017.6 hPa | 0 mm | - | - | - |
| 1777521634 | 21.67° C | 79% | 1016.7 hPa | 0 mm | - | - | - |
| 1777521621 | 21.67° C | 79% | 1017.6 hPa | 0 mm | - | - | - |
| 1777521021 | 21.67° C | 80% | 1017.5 hPa | 0 mm | - | - | - |
| 1777520707 | 21.67° C | 80% | 1016.7 hPa | 0 mm | - | - | - |
| 1777520422 | 21.67° C | 80% | 1017.4 hPa | 0 mm | - | - | - |
| 1777519863 | 21.67° C | 78% | 1016.8 hPa | 0 mm | - | - | - |
| 1777519821 | 21.67° C | 78% | 1017.5 hPa | 0 mm | - | - | - |
| 1777519222 | 21.67° C | 79% | 1017.4 hPa | 0 mm | - | - | - |
| 1777518939 | 21.67° C | 79% | 1016.6 hPa | 0 mm | - | - | - |
| 1777518621 | 21.67° C | 80% | 1017.4 hPa | 0 mm | - | - | - |
| 1777518021 | 21.67° C | 80% | 1017.4 hPa | 0 mm | - | - | - |
| 1777518018 | 21.67° C | 80% | 1016.5 hPa | 0 mm | - | - | - |
| 1777517421 | 22.22° C | 81% | 1017.4 hPa | 0 mm | - | - | - |
| 1777517151 | 21.67° C | 82% | 1016.5 hPa | 0 mm | - | - | - |
| 1777516821 | 22.22° C | 82% | 1017.3 hPa | 0 mm | - | - | - |
| 1777516225 | 21.67° C | 80% | 1016.5 hPa | 0 mm | - | - | - |
| 1777516221 | 22.22° C | 80% | 1017.3 hPa | 0 mm | - | - | - |
| 1777515621 | 21.67° C | 83% | 1017.3 hPa | 0 mm | - | - | - |
| 1777515370 | 21.67° C | 84% | 1016.5 hPa | 0 mm | - | - | - |
| 1777515021 | 21.67° C | 83% | 1017.3 hPa | 0 mm | - | - | - |
| 1777514442 | 21.67° C | 82% | 1016.4 hPa | 0 mm | - | - | - |
| 1777514421 | 21.67° C | 82% | 1017.3 hPa | 0 mm | - | - | - |
| 1777513822 | 21.67° C | 84% | 1017.4 hPa | 0 mm | - | - | - |
| 1777513516 | 21.11° C | 84% | 1016.6 hPa | 0 mm | - | - | - |
* Rain latest hour (hover to see other rain measurements)
** Current wind speed in m/s (hover to see current wind gust speed)